Hourly Data Report for September 14, 2017

All times are specified in Local Standard Time (LST). Add 1 hour to adjust for Daylight Saving Time where and when it is observed.

PETAWAWA AWOS 2
ONTARIO

45°57'00.000" N
77°19'00.000" W
130.10 m
6106396
71625
YWA

Download Data

Hourly Data (September 2017)
Hourly Data Report for September 14, 2017
Temp Definition
°C
Dew Point Temp Definition
°C
Rel Hum Definition
%
Wind Dir Definition
10's deg

Wind Spd Definition
km/h
Visibility Definition
km
Stn Press Definition
kPa
Hmdx Definition


Wind Chill Definition


Weather Definition


TIME
00:00 14.5 13.9 96 36 4 14.5 99.33     LegendNANA
01:00
02:00 12.6 12.6 100 23 9 14.5 99.34     LegendNANA
03:00 12.5 12.1 97   0 14.5 99.35     LegendNANA
04:00 11.4 11.4 100 30 4 0.5 99.38     LegendNANA
05:00 10.3 10.1 99 22 4 0.3 99.41     LegendNANA
06:00 10.4 10.4 100   0 0.6 99.48     LegendNANA
07:00 12.1 12.0 99   0 11.3 99.52     LegendNANA
08:00 13.2 13.2 100 34 6 0.3 99.55     LegendNANA
09:00 15.9 14.3 90 32 6 14.5 99.60     LegendNANA
10:00 18.9 15.2 79 34 7 14.5 99.61     LegendNANA
11:00 20.2 15.7 75 3 4 14.5 99.55 25   LegendNANA
12:00 22.4 16.8 71 6 6 14.5 99.54 28   LegendNANA
13:00 23.3 15.0 60 11 7 14.5 99.53 27   LegendNANA
14:00 24.0 15.3 58 10 6 14.5 99.53 28   LegendNANA
15:00 24.2 15.6 59 7 4 14.5 99.54 29   LegendNANA
16:00 24.2 15.9 60 6 4 14.5 99.55 29   LegendNANA
17:00 22.4 15.6 65   0 14.5 99.58 27   LegendNANA
18:00 21.1 17.0 77   0 14.5 99.63 26   LegendNANA
19:00 18.6 17.3 92   0 11.3 99.69     LegendNANA
20:00 16.6 16.0 96   0 14.5 99.75     LegendNANA
21:00 15.4 14.9 97 28 4 11.3 99.77     LegendNANA
22:00 15.0 14.5 97   0 8.0 99.82     LegendNANA
23:00 14.1 13.6 97 24 4 12.9 99.86     LegendNANA

Notes on Data Quality.

Legend

  • E = Estimated
  • M = Missing
  • NA = Not Available
  • ‡ = Partner data that is not subject to review by the National Climate Archives
Date modified: